カタログに戻る

NTS 1 AKM

運用中MEO
NORAD 8599·ROCKET BODY·🇺🇸 United States

打ち上げ Jul 14, 1974 から Vandenberg Space Force Base

Loading…

次のパス (今後24時間)

TLE

最新Source: Space-Track

元期: Sep 11, 2026, 09:44 UTC

1 08599U 74054C   26254.40580883  .00000049  00000-0  00000-0 0  9999
2 08599 124.9230 250.2115 0055264  79.8233  98.5655  3.07178743388067

AllMySatでNTS 1 AKMをリアルタイム追跡

Download on the App Store